Location: Staunton
(38.1490°N, 79.0720°W)
Time: 03:27:09
(UTC-04:00)

ISS - Pass Details

Date: 17 September 2017
Orbit: 401 x 407 km, 51.6° (Epoch: 23 September)

Event Time Altitude Azimuth Distance (km) Brightness Sun altitude
Exits shadow 05:22:55 - 338° (NNW) 1,510 -1.0 -19.5°
Reaches altitude 10° 05:23:04 10° 339° (NNW) 1,470 -1.0 -19.5°
Maximum altitude 05:25:24 18° 25° (NNE) 1,087 -1.2 -19.0°
Drops below altitude 10° 05:27:44 10° 70° (ENE) 1,466 0.3 -18.6°
Sets 05:30:17 0° 90° (E) 2,323 1.4 -18.1°
